,,Stat6,,Stat2,,Stat8,,Stat9,,Stat10,,Wind1,,Wind1,
time,status,PA1M_AVG,status,PR1M_SUM,status,RH1M_AVG,status,SR1M_AVG,status,TA1M_AVG,status,W1dAve1m,status,W1sAve1m,
2005-03-06, 00:00:00,VALID,921.967,VALID,0,VALID,89.5629,VALID,0,VALID,20.7075,VALID,118,VALID,1.88351,
2005-03-06, 00:01:00,VALID,921.949,VALID,0,VALID,89.2946,VALID,0,VALID,20.7299,VALID,92,VALID,1.67748,
2005-03-06, 00:02:00,VALID,921.931,VALID,0,VALID,89.1433,VALID,0,VALID,20.7592,VALID,110,VALID,1.67228,
2005-03-06, 00:03:00,VALID,921.919,VALID,0,VALID,89.0835,VALID,0,VALID,20.7883,VALID,119,VALID,1.99428,
2005-03-06, 00:04:00,VALID,921.933,VALID,0,VALID,88.8864,VALID,0.0169808,VALID,20.8297,VALID,115,VALID,1.55114,
2005-03-06, 00:05:00,VALID,921.934,VALID,0,VALID,88.7364,VALID,0,VALID,20.8822,VALID,104,VALID,1.5997,
2005-03-06, 00:06:00,VALID,921.933,VALID,0,VALID,88.3931,VALID,-0.0169808,VALID,20.9433,VALID,109,VALID,1.76114,
2005-03-06, 00:07:00,VALID,921.936,VALID,0,VALID,88.2138,VALID,0,VALID,20.9977,VALID,108,VALID,1.60281,
2005-03-06, 00:08:00,VALID,921.931,VALID,0,VALID,88.0675,VALID,0.0169808,VALID,21.0402,VALID,106,VALID,1.45094,
2005-03-06, 00:09:00,VALID,921.909,VALID,0,VALID,88.0548,VALID,0,VALID,21.0459,VALID,110,VALID,1.26337,
2005-03-06, 00:10:00,VALID,921.911,VALID,0,VALID,88.1438,VALID,0,VALID,21.03,VALID,107,VALID,1.04688,
2005-03-06, 00:11:00,VALID,921.902,VALID,0,VALID,88.2875,VALID,0,VALID,21.0138,VALID,104,VALID,1.19493,
2005-03-06, 00:12:00,VALID,921.889,VALID,0,VALID,88.4655,VALID,0,VALID,20.9751,VALID,105,VALID,1.14117,
2005-03-06, 00:13:00,VALID,921.877,VALID,0,VALID,88.5584,VALID,0,VALID,20.956,VALID,99,VALID,1.65534,
2005-03-06, 00:14:00,VALID,921.85,VALID,0,VALID,88.5304,VALID,0,VALID,20.9393,VALID,107,VALID,1.51429,
2005-03-06, 00:15:00,VALID,921.84,VALID,0,VALID,88.505,VALID,0,VALID,20.9395,VALID,107,VALID,1.63003,
2005-03-06, 00:16:00,VALID,921.828,VALID,0,VALID,88.421,VALID,0,VALID,20.9554,VALID,113,VALID,1.70647,
2005-03-06, 00:17:00,VALID,921.804,VALID,0,VALID,88.2354,VALID,0,VALID,21.0041,VALID,106,VALID,1.40718,
2005-03-06, 00:18:00,VALID,921.801,VALID,0,VALID,88.1286,VALID,0.0509425,VALID,21.0235,VALID,103,VALID,1.65891,
2005-03-06, 00:19:00,VALID,921.798,VALID,0,VALID,88.1006,VALID,0,VALID,21.0394,VALID,115,VALID,1.61291,
2005-03-06, 00:20:00,VALID,921.803,VALID,0,VALID,88.065,VALID,0,VALID,21.0655,VALID,116,VALID,1.775,
2005-03-06, 00:21:00,VALID,921.792,VALID,0,VALID,88.0408,VALID,-0.0339617,VALID,21.0817,VALID,112,VALID,1.60065,
2005-03-06, 00:22:00,VALID,921.794,VALID,0,VALID,87.9988,VALID,-0.0169808,VALID,21.0782,VALID,109,VALID,1.6806,
2005-03-06, 00:23:00,VALID,921.804,VALID,0,VALID,87.8475,VALID,0,VALID,21.1078,VALID,102,VALID,1.98791,
2005-03-06, 00:24:00,VALID,921.812,VALID,0,VALID,87.8043,VALID,0,VALID,21.1137,VALID,95,VALID,1.8058,
2005-03-06, 00:25:00,VALID,921.803,VALID,0,VALID,87.9251,VALID,0,VALID,21.0946,VALID,111,VALID,1.35356,
2005-03-06, 00:26:00,VALID,921.8,VALID,0,VALID,88.0853,VALID,0.0509425,VALID,21.069,VALID,102,VALID,1.28348,
2005-03-06, 00:27:00,VALID,921.791,VALID,0,VALID,88.2824,VALID,0.0169808,VALID,21.02,VALID,118,VALID,1.37686,
2005-03-06, 00:28:00,VALID,921.77,VALID,0,VALID,88.3562,VALID,0,VALID,20.9912,VALID,118,VALID,1.43826,
2005-03-06, 00:29:00,VALID,921.754,VALID,0,VALID,88.1298,VALID,0.0339617,VALID,21.0273,VALID,106,VALID,2.13662,
2005-03-06, 00:30:00,VALID,921.766,VALID,0,VALID,87.9162,VALID,0.0169808,VALID,21.0591,VALID,105,VALID,1.60582,
2005-03-06, 00:31:00,VALID,921.756,VALID,0,VALID,88.0205,VALID,0.0169808,VALID,21.0596,VALID,107,VALID,1.16066,
2005-03-06, 00:32:00,VALID,921.74,VALID,0,VALID,88.2138,VALID,-0.0169808,VALID,21.0238,VALID,111,VALID,1.46894,
2005-03-06, 00:33:00,VALID,921.752,VALID,0,VALID,88.2697,VALID,0.0169808,VALID,21.0076,VALID,114,VALID,1.57641,
2005-03-06, 00:34:00,VALID,921.76,VALID,0,VALID,88.187,VALID,0.0169808,VALID,21.0179,VALID,111,VALID,1.24066,
2005-03-06, 00:35:00,VALID,921.749,VALID,0,VALID,88.3104,VALID,0,VALID,20.9945,VALID,127,VALID,1.03622,
2005-03-06, 00:36:00,VALID,921.753,VALID,0,VALID,88.5456,VALID,0.0169808,VALID,20.9622,VALID,129,VALID,1.03367,
2005-03-06, 00:37:00,VALID,921.76,VALID,0,VALID,88.6868,VALID,0,VALID,20.9234,VALID,136,VALID,1.69271,
2005-03-06, 00:38:00,VALID,921.756,VALID,0,VALID,88.7898,VALID,0,VALID,20.9035,VALID,134,VALID,0.952381,
2005-03-06, 00:39:00,VALID,921.747,VALID,0,VALID,89.1115,VALID,0.0169808,VALID,20.8491,VALID,127,VALID,0.893229,
2005-03-06, 00:40:00,VALID,921.736,VALID,0,VALID,89.6621,VALID,0.0169808,VALID,20.7582,VALID,137,VALID,1.74551,
2005-03-06, 00:41:00,VALID,921.719,VALID,0,VALID,90.1555,VALID,0.0509425,VALID,20.6648,VALID,127,VALID,1.47303,
2005-03-06, 00:42:00,VALID,921.692,VALID,0,VALID,90.4861,VALID,0,VALID,20.6066,VALID,149,VALID,1.4028,
2005-03-06, 00:43:00,VALID,921.694,VALID,0,VALID,90.5827,VALID,0.0169808,VALID,20.5552,VALID,139,VALID,1.1532,
2005-03-06, 00:44:00,VALID,921.687,VALID,0,VALID,90.8943,VALID,0.0169808,VALID,20.4842,VALID,124,VALID,1.17168,
2005-03-06, 00:45:00,VALID,921.684,VALID,0,VALID,91.3851,VALID,0,VALID,20.4134,VALID,130,VALID,1.4008,
2005-03-06, 00:46:00,VALID,921.658,VALID,0,VALID,91.8594,VALID,0.0169808,VALID,20.359,VALID,135,VALID,1.44277,
2005-03-06, 00:47:00,VALID,921.66,VALID,0,VALID,92.0591,VALID,0,VALID,20.2904,VALID,128,VALID,1.17383,
2005-03-06, 00:48:00,VALID,921.648,VALID,0,VALID,92.4317,VALID,-0.0169808,VALID,20.2363,VALID,130,VALID,1.23565,
2005-03-06, 00:49:00,VALID,921.636,VALID,0,VALID,92.8297,VALID,0,VALID,20.1843,VALID,137,VALID,1.44922,
2005-03-06, 00:50:00,VALID,921.623,VALID,0,VALID,92.8907,VALID,-0.0169808,VALID,20.1389,VALID,139,VALID,0.961319,
2005-03-06, 00:51:00,VALID,921.621,VALID,0,VALID,93.084,VALID,0,VALID,20.1093,VALID,128,VALID,1.34233,
2005-03-06, 00:52:00,VALID,921.612,VALID,0,VALID,93.2849,VALID,-0.0339617,VALID,20.1006,VALID,125,VALID,1.20694,
2005-03-06, 00:53:00,VALID,921.614,VALID,0,VALID,93.3727,VALID,-0.0169808,VALID,20.0907,VALID,115,VALID,0.975991,
2005-03-06, 00:54:00,VALID,921.593,VALID,0,VALID,93.3981,VALID,0,VALID,20.0681,VALID,103,VALID,1.09502,
2005-03-06, 00:55:00,VALID,921.585,VALID,0,VALID,93.6371,VALID,0,VALID,20.0361,VALID,111,VALID,1.14426,
2005-03-06, 00:56:00,VALID,921.576,VALID,0,VALID,93.7783,VALID,-0.0169808,VALID,20.007,VALID,119,VALID,1.03452,
2005-03-06, 00:57:00,VALID,921.571,VALID,0,VALID,93.9538,VALID,0,VALID,19.9779,VALID,133,VALID,1.32071,
2005-03-06, 00:58:00,VALID,921.563,VALID,0,VALID,94.0072,VALID,-0.0169808,VALID,19.9911,VALID,130,VALID,1.63854,
2005-03-06, 00:59:00,VALID,921.57,VALID,0,VALID,93.7351,VALID,0,VALID,20.0361,VALID,119,VALID,1.61403,
2005-03-06, 01:00:00,VALID,921.557,VALID,0,VALID,93.5659,VALID,0,VALID,20.0723,VALID,137,VALID,1.38095,
2005-03-06, 01:01:00,VALID,921.565,VALID,0,VALID,93.571,VALID,-0.0339617,VALID,20.0651,VALID,132,VALID,1.47512,
2005-03-06, 01:02:00,VALID,921.548,VALID,0,VALID,93.4413,VALID,0.0169808,VALID,20.0656,VALID,140,VALID,1.07717,
2005-03-06, 01:03:00,VALID,921.547,VALID,0,VALID,93.4057,VALID,0,VALID,20.0589,VALID,112,VALID,1.55413,
2005-03-06, 01:04:00,VALID,921.517,VALID,0,VALID,93.4935,VALID,-0.0169808,VALID,20.0624,VALID,141,VALID,1.4226,
2005-03-06, 01:05:00,VALID,921.508,VALID,0,VALID,93.4718,VALID,-0.0169808,VALID,20.0626,VALID,123,VALID,1.03203,
2005-03-06, 01:06:00,VALID,921.482,VALID,0,VALID,93.6257,VALID,0,VALID,20.0688,VALID,126,VALID,1.35286,
2005-03-06, 01:07:00,VALID,921.458,VALID,0,VALID,93.6181,VALID,0,VALID,20.0527,VALID,134,VALID,1.39808,
2005-03-06, 01:08:00,VALID,921.446,VALID,0,VALID,93.6448,VALID,0.0169808,VALID,20.0328,VALID,119,VALID,1.06678,
2005-03-06, 01:09:00,VALID,921.439,VALID,0,VALID,93.8215,VALID,-0.0169808,VALID,20.0371,VALID,111,VALID,1.53792,
2005-03-06, 01:10:00,VALID,921.417,VALID,0,VALID,93.8444,VALID,0.0169808,VALID,20.0174,VALID,137,VALID,1.02763,
2005-03-06, 01:11:00,VALID,921.403,VALID,0,VALID,94.0174,VALID,0,VALID,19.9881,VALID,127,VALID,1.29421,
2005-03-06, 01:12:00,VALID,921.388,VALID,0,VALID,94.1636,VALID,-0.0169808,VALID,19.9623,VALID,127,VALID,1.32165,
2005-03-06, 01:13:00,VALID,921.365,VALID,0,VALID,94.2729,VALID,0,VALID,19.9459,VALID,120,VALID,1.43452,
2005-03-06, 01:14:00,VALID,921.363,VALID,0,VALID,94.3073,VALID,-0.0169808,VALID,19.9461,VALID,127,VALID,1.33575,
2005-03-06, 01:15:00,VALID,921.356,VALID,0,VALID,94.3314,VALID,-0.0169808,VALID,19.963,VALID,121,VALID,1.44949,
2005-03-06, 01:16:00,VALID,921.345,VALID,0,VALID,94.1916,VALID,0,VALID,19.9856,VALID,105,VALID,1.20799,
2005-03-06, 01:17:00,VALID,921.33,VALID,0,VALID,94.1509,VALID,-0.0169808,VALID,19.9849,VALID,132,VALID,1.37742,
2005-03-06, 01:18:00,VALID,921.306,VALID,0,VALID,94.1318,VALID,0,VALID,19.9881,VALID,115,VALID,1.4974,
2005-03-06, 01:19:00,VALID,921.304,VALID,0,VALID,93.7936,VALID,-0.0169808,VALID,19.9819,VALID,84,VALID,1.74645,
2005-03-06, 01:20:00,VALID,921.282,VALID,0,VALID,94.0479,VALID,0,VALID,19.9663,VALID,121,VALID,1.6189,
2005-03-06, 01:21:00,VALID,921.251,VALID,0,VALID,94.0886,VALID,0,VALID,19.9593,VALID,120,VALID,1.3612,
2005-03-06, 01:22:00,VALID,921.243,VALID,0,VALID,94.1801,VALID,-0.0169808,VALID,19.966,VALID,127,VALID,1.63858,
2005-03-06, 01:23:00,VALID,921.223,VALID,0,VALID,94.2043,VALID,-0.0169808,VALID,19.9618,VALID,125,VALID,1.42321,
2005-03-06, 01:24:00,VALID,921.212,VALID,0,VALID,94.1865,VALID,0,VALID,19.9655,VALID,114,VALID,1.2444,
2005-03-06, 01:25:00,VALID,921.213,VALID,0,VALID,94.1788,VALID,-0.0169808,VALID,19.972,VALID,110,VALID,1.09482,
2005-03-06, 01:26:00,VALID,921.202,VALID,0,VALID,94.128,VALID,0.0169808,VALID,19.9623,VALID,112,VALID,1.14565,
2005-03-06, 01:27:00,VALID,921.193,VALID,0,VALID,94.1725,VALID,0.0169808,VALID,19.9628,VALID,116,VALID,0.941211,
2005-03-06, 01:28:00,VALID,921.183,VALID,0,VALID,94.1814,VALID,-0.0169808,VALID,19.9658,VALID,115,VALID,1.49752,
2005-03-06, 01:29:00,VALID,921.17,VALID,0,VALID,94.025,VALID,0.0169808,VALID,20.0112,VALID,115,VALID,1.81108,
2005-03-06, 01:30:00,VALID,921.158,VALID,0,VALID,93.5519,VALID,-0.0169808,VALID,20.0818,VALID,120,VALID,1.39007,
2005-03-06, 01:31:00,VALID,921.152,VALID,0,VALID,93.1018,VALID,-0.0169808,VALID,20.1662,VALID,122,VALID,1.09242,
2005-03-06, 01:32:00,VALID,921.129,VALID,0,VALID,93.0484,VALID,0,VALID,20.195,VALID,121,VALID,1.02065,
2005-03-06, 01:33:00,VALID,921.12,VALID,0,VALID,93.0637,VALID,0,VALID,20.2246,VALID,125,VALID,1.5166,
2005-03-06, 01:34:00,VALID,921.108,VALID,0,VALID,92.981,VALID,0,VALID,20.2241,VALID,116,VALID,1.81406,
2005-03-06, 01:35:00,VALID,921.108,VALID,0,VALID,92.8704,VALID,-0.0169808,VALID,20.2276,VALID,107,VALID,1.46819,
2005-03-06, 01:36:00,VALID,921.095,VALID,0,VALID,93.0255,VALID,0,VALID,20.2085,VALID,117,VALID,1.25558,
2005-03-06, 01:37:00,VALID,921.092,VALID,0,VALID,93.1005,VALID,-0.0169808,VALID,20.1757,VALID,102,VALID,1.24428,
2005-03-06, 01:38:00,VALID,921.066,VALID,0,VALID,93.3218,VALID,-0.0339617,VALID,20.1372,VALID,105,VALID,1.23075,
2005-03-06, 01:39:00,VALID,921.054,VALID,0,VALID,93.4515,VALID,0,VALID,20.1084,VALID,112,VALID,1.0166,
2005-03-06, 01:40:00,VALID,921.038,VALID,0,VALID,93.6003,VALID,-0.0169808,VALID,20.0753,VALID,107,VALID,1.14935,
2005-03-06, 01:41:00,VALID,921.029,VALID,0,VALID,93.4744,VALID,-0.0169808,VALID,20.0594,VALID,94,VALID,1.05799,
2005-03-06, 01:42:00,VALID,921.018,VALID,0,VALID,93.641,VALID,-0.0339617,VALID,20.053,VALID,118,VALID,1.62936,
2005-03-06, 01:43:00,VALID,921.008,VALID,0,VALID,93.4731,VALID,-0.0509425,VALID,20.0763,VALID,110,VALID,1.19176,
2005-03-06, 01:44:00,VALID,920.993,VALID,0,VALID,93.4222,VALID,-0.0509425,VALID,20.0858,VALID,113,VALID,1.14583,
2005-03-06, 01:45:00,VALID,920.991,VALID,0,VALID,93.5024,VALID,-0.0169808,VALID,20.079,VALID,117,VALID,1.14748,
2005-03-06, 01:46:00,VALID,920.975,VALID,0,VALID,93.6092,VALID,-0.0169808,VALID,20.0664,VALID,114,VALID,1.2391,
2005-03-06, 01:47:00,VALID,920.979,VALID,0,VALID,93.7948,VALID,-0.0509425,VALID,20.0537,VALID,129,VALID,1.34914,
2005-03-06, 01:48:00,VALID,920.981,VALID,0,VALID,93.7147,VALID,-0.0169808,VALID,20.0594,VALID,124,VALID,1.20703,
2005-03-06, 01:49:00,VALID,920.978,VALID,0,VALID,93.8088,VALID,0,VALID,20.0567,VALID,127,VALID,1.43058,
2005-03-06, 01:50:00,VALID,920.97,VALID,0,VALID,93.8393,VALID,-0.0509425,VALID,20.0634,VALID,121,VALID,1.39276,
2005-03-06, 01:51:00,VALID,920.974,VALID,0,VALID,93.6778,VALID,-0.0509425,VALID,20.0532,VALID,117,VALID,1.11384,
2005-03-06, 01:52:00,VALID,920.972,VALID,0,VALID,93.6359,VALID,-0.0339617,VALID,20.0497,VALID,118,VALID,1.19389,
2005-03-06, 01:53:00,VALID,920.969,VALID,0,VALID,93.5291,VALID,-0.0339617,VALID,20.0532,VALID,122,VALID,1.31669,
2005-03-06, 01:54:00,VALID,920.968,VALID,0,VALID,93.3625,VALID,-0.0169808,VALID,20.0567,VALID,117,VALID,1.33448,
2005-03-06, 01:55:00,VALID,920.951,VALID,0,VALID,93.44,VALID,-0.0169808,VALID,20.0629,VALID,120,VALID,1.29244,
2005-03-06, 01:56:00,VALID,920.951,VALID,0,VALID,93.6333,VALID,-0.0339617,VALID,20.0473,VALID,132,VALID,1.45833,
2005-03-06, 01:57:00,VALID,920.946,VALID,0,VALID,93.8012,VALID,-0.0339617,VALID,20.0306,VALID,132,VALID,1.16832,
2005-03-06, 01:58:00,VALID,920.925,VALID,0,VALID,94.0288,VALID,-0.0169808,VALID,19.9919,VALID,136,VALID,1.52846,
2005-03-06, 01:59:00,VALID,920.909,VALID,0,VALID,94.2424,VALID,-0.0509425,VALID,19.9598,VALID,148,VALID,1.33965,
2005-03-06, 02:00:00,VALID,920.907,VALID,0,VALID,94.3531,VALID,-0.0339617,VALID,19.9238,VALID,139,VALID,1.3248,
2005-03-06, 02:01:00,VALID,920.892,VALID,0,VALID,94.4497,VALID,-0.0339617,VALID,19.8885,VALID,134,VALID,1.25302,
2005-03-06, 02:02:00,VALID,920.866,VALID,0,VALID,94.6315,VALID,-0.0509425,VALID,19.8498,VALID,122,VALID,1.55107,
2005-03-06, 02:03:00,VALID,920.871,VALID,0,VALID,94.6608,VALID,-0.0169808,VALID,19.8567,VALID,125,VALID,1.48647,
2005-03-06, 02:04:00,VALID,920.859,VALID,0,VALID,94.6786,VALID,-0.0169808,VALID,19.8401,VALID,131,VALID,1.75502,
2005-03-06, 02:05:00,VALID,920.844,VALID,0,VALID,94.4675,VALID,-0.0339617,VALID,19.8627,VALID,132,VALID,1.9286,
2005-03-06, 02:06:00,VALID,920.84,VALID,0,VALID,94.2412,VALID,0,VALID,19.885,VALID,135,VALID,1.80208,
2005-03-06, 02:07:00,VALID,920.833,VALID,0,VALID,94.1712,VALID,-0.0169808,VALID,19.9081,VALID,127,VALID,1.62234,
2005-03-06, 02:08:00,VALID,920.81,VALID,0,VALID,94.2399,VALID,0,VALID,19.898,VALID,132,VALID,1.69306,
2005-03-06, 02:09:00,VALID,920.808,VALID,0,VALID,94.2272,VALID,-0.0169808,VALID,19.9019,VALID,126,VALID,1.46551,
2005-03-06, 02:10:00,VALID,920.791,VALID,0,VALID,94.3162,VALID,0,VALID,19.8751,VALID,128,VALID,1.19478,
2005-03-06, 02:11:00,VALID,920.792,VALID,0,VALID,94.4357,VALID,-0.0339617,VALID,19.8562,VALID,114,VALID,1.36101,
2005-03-06, 02:12:00,VALID,920.809,VALID,0,VALID,94.5667,VALID,0,VALID,19.8336,VALID,115,VALID,1.53906,
2005-03-06, 02:13:00,VALID,920.799,VALID,0,VALID,94.69,VALID,-0.0169808,VALID,19.7981,VALID,132,VALID,1.45625,
2005-03-06, 02:14:00,VALID,920.792,VALID,0,VALID,94.807,VALID,-0.0339617,VALID,19.7693,VALID,133,VALID,1.63777,
2005-03-06, 02:15:00,VALID,920.778,VALID,0,VALID,94.9062,VALID,-0.0169808,VALID,19.7435,VALID,130,VALID,1.37282,
2005-03-06, 02:16:00,VALID,920.773,VALID,0,VALID,95.0385,VALID,0,VALID,19.7077,VALID,117,VALID,1.39535,
2005-03-06, 02:17:00,VALID,920.756,VALID,0,VALID,95.1872,VALID,-0.0339617,VALID,19.6888,VALID,128,VALID,1.38988,
2005-03-06, 02:18:00,VALID,920.742,VALID,0,VALID,95.1262,VALID,-0.0339617,VALID,19.6694,VALID,123,VALID,1.10231,
2005-03-06, 02:19:00,VALID,920.737,VALID,0,VALID,95.2381,VALID,-0.0169808,VALID,19.6396,VALID,116,VALID,1.71289,
2005-03-06, 02:20:00,VALID,920.717,VALID,0,VALID,95.4085,VALID,-0.0339617,VALID,19.6108,VALID,117,VALID,1.39688,
2005-03-06, 02:21:00,VALID,920.695,VALID,0,VALID,95.4441,VALID,0,VALID,19.5944,VALID,107,VALID,1.62791,
2005-03-06, 02:22:00,VALID,920.672,VALID,0,VALID,95.6628,VALID,-0.0509425,VALID,19.5721,VALID,139,VALID,1.46591,
2005-03-06, 02:23:00,VALID,920.663,VALID,0,VALID,95.4746,VALID,-0.0339617,VALID,19.5919,VALID,109,VALID,1.50497,
2005-03-06, 02:24:00,VALID,920.654,VALID,0,VALID,95.3983,VALID,-0.0339617,VALID,19.5793,VALID,102,VALID,1.68407,
2005-03-06, 02:25:00,VALID,920.624,VALID,0,VALID,95.6628,VALID,-0.0339617,VALID,19.5366,VALID,137,VALID,1.80146,
2005-03-06, 02:26:00,VALID,920.619,VALID,0,VALID,95.7696,VALID,-0.0679233,VALID,19.5306,VALID,122,VALID,1.52544,
2005-03-06, 02:27:00,VALID,920.599,VALID,0,VALID,95.6666,VALID,-0.0169808,VALID,19.5269,VALID,127,VALID,1.47824,
2005-03-06, 02:28:00,VALID,920.582,VALID,0,VALID,95.7505,VALID,-0.0169808,VALID,19.514,VALID,119,VALID,1.43407,
2005-03-06, 02:29:00,VALID,920.58,VALID,0,VALID,95.6514,VALID,-0.0509425,VALID,19.5112,VALID,105,VALID,1.74237,
2005-03-06, 02:30:00,VALID,920.55,VALID,0,VALID,95.8256,VALID,-0.0679233,VALID,19.4953,VALID,129,VALID,1.84394,
2005-03-06, 02:31:00,VALID,920.525,VALID,0,VALID,95.8599,VALID,-0.0339617,VALID,19.5077,VALID,131,VALID,2.12336,
2005-03-06, 02:32:00,VALID,920.501,VALID,0,VALID,95.7823,VALID,-0.0339617,VALID,19.5177,VALID,131,VALID,1.90091,
2005-03-06, 02:33:00,VALID,920.506,VALID,0,VALID,95.8001,VALID,-0.0169808,VALID,19.4943,VALID,122,VALID,1.27051,
2005-03-06, 02:34:00,VALID,920.487,VALID,0,VALID,95.879,VALID,0,VALID,19.4918,VALID,122,VALID,1.20275,
2005-03-06, 02:35:00,VALID,920.487,VALID,0,VALID,95.9286,VALID,0,VALID,19.4886,VALID,123,VALID,1.41934,
2005-03-06, 02:36:00,VALID,920.474,VALID,0,VALID,95.9871,VALID,0,VALID,19.4787,VALID,134,VALID,1.75963,
2005-03-06, 02:37:00,VALID,920.486,VALID,0,VALID,95.879,VALID,-0.0169808,VALID,19.4792,VALID,112,VALID,1.52269,
2005-03-06, 02:38:00,VALID,920.485,VALID,0,VALID,95.9413,VALID,-0.0339617,VALID,19.4628,VALID,132,VALID,1.58809,
2005-03-06, 02:39:00,VALID,920.447,VALID,0,VALID,96.0532,VALID,-0.0339617,VALID,19.4566,VALID,139,VALID,1.7887,
2005-03-06, 02:40:00,VALID,920.438,VALID,0,VALID,95.968,VALID,0,VALID,19.4692,VALID,131,VALID,1.82757,
2005-03-06, 02:41:00,VALID,920.436,VALID,0,VALID,95.8052,VALID,-0.0169808,VALID,19.4727,VALID,114,VALID,1.42507,
2005-03-06, 02:42:00,VALID,920.41,VALID,0,VALID,95.8752,VALID,-0.0169808,VALID,19.4563,VALID,114,VALID,1.37251,
2005-03-06, 02:43:00,VALID,920.403,VALID,0,VALID,95.9197,VALID,0,VALID,19.4635,VALID,120,VALID,1.48611,
2005-03-06, 02:44:00,VALID,920.411,VALID,0,VALID,95.8981,VALID,-0.0339617,VALID,19.4496,VALID,113,VALID,1.20567,
2005-03-06, 02:45:00,VALID,920.407,VALID,0,VALID,95.8396,VALID,-0.0169808,VALID,19.4563,VALID,126,VALID,1.64392,
2005-03-06, 02:46:00,VALID,920.398,VALID,0,VALID,95.7798,VALID,-0.0169808,VALID,19.4663,VALID,121,VALID,1.56455,
2005-03-06, 02:47:00,VALID,920.396,VALID,0,VALID,95.748,VALID,0,VALID,19.4623,VALID,123,VALID,1.49037,
2005-03-06, 02:48:00,VALID,920.385,VALID,0,VALID,95.7442,VALID,0,VALID,19.4591,VALID,120,VALID,1.73783,
2005-03-06, 02:49:00,VALID,920.37,VALID,0,VALID,95.7162,VALID,-0.0169808,VALID,19.4655,VALID,123,VALID,1.7834,
2005-03-06, 02:50:00,VALID,920.35,VALID,0,VALID,95.5433,VALID,0,VALID,19.4854,VALID,115,VALID,1.41836,
2005-03-06, 02:51:00,VALID,920.328,VALID,0,VALID,95.4225,VALID,0.0169808,VALID,19.5013,VALID,128,VALID,1.53711,
2005-03-06, 02:52:00,VALID,920.323,VALID,0,VALID,95.1249,VALID,0,VALID,19.5236,VALID,121,VALID,1.34222,
2005-03-06, 02:53:00,VALID,920.313,VALID,0,VALID,95.0079,VALID,0.0169808,VALID,19.5301,VALID,101,VALID,1.44289,
2005-03-06, 02:54:00,VALID,920.29,VALID,0,VALID,95.1122,VALID,0,VALID,19.5241,VALID,117,VALID,1.28457,
2005-03-06, 02:55:00,VALID,920.285,VALID,0,VALID,95.0079,VALID,0,VALID,19.5433,VALID,128,VALID,0.958939,
2005-03-06, 02:56:00,VALID,920.281,VALID,0,VALID,94.9176,VALID,0,VALID,19.5338,VALID,107,VALID,0.852834,
2005-03-06, 02:57:00,VALID,920.274,VALID,0,VALID,95.0461,VALID,0,VALID,19.5043,VALID,107,VALID,1.34527,
2005-03-06, 02:58:00,VALID,920.251,VALID,0,VALID,95.2661,VALID,0,VALID,19.4916,VALID,117,VALID,1.22456,
2005-03-06, 02:59:00,VALID,920.234,VALID,0,VALID,95.5115,VALID,0,VALID,19.4784,VALID,129,VALID,1.79781,
2005-03-06, 03:00:00,VALID,920.237,VALID,0,VALID,95.3068,VALID,-0.0169808,VALID,19.4981,VALID,107,VALID,1.73307,
2005-03-06, 03:01:00,VALID,920.225,VALID,0,VALID,95.1122,VALID,-0.0169808,VALID,19.5045,VALID,106,VALID,1.5142,
2005-03-06, 03:02:00,VALID,920.216,VALID,0,VALID,95.2063,VALID,0,VALID,19.4625,VALID,108,VALID,1.40861,
2005-03-06, 03:03:00,VALID,920.209,VALID,0,VALID,95.5166,VALID,0,VALID,19.4407,VALID,111,VALID,1.52586,
2005-03-06, 03:04:00,VALID,920.214,VALID,0,VALID,95.5102,VALID,0,VALID,19.3853,VALID,93,VALID,1.50371,
2005-03-06, 03:05:00,VALID,920.204,VALID,0,VALID,95.7264,VALID,0.0169808,VALID,19.3398,VALID,97,VALID,1.43501,
2005-03-06, 03:06:00,VALID,920.206,VALID,0,VALID,95.8739,VALID,-0.0509425,VALID,19.3344,VALID,108,VALID,1.87519,
2005-03-06, 03:07:00,VALID,920.198,VALID,0,VALID,95.8968,VALID,-0.0169808,VALID,19.314,VALID,113,VALID,1.3919,
2005-03-06, 03:08:00,VALID,920.188,VALID,0,VALID,95.8866,VALID,0,VALID,19.3306,VALID,115,VALID,1.71665,
2005-03-06, 03:09:00,VALID,920.168,VALID,0,VALID,95.8192,VALID,-0.0169808,VALID,19.3436,VALID,112,VALID,1.5625,
2005-03-06, 03:10:00,VALID,920.156,VALID,0,VALID,95.72,VALID,-0.0509425,VALID,19.3786,VALID,108,VALID,2.00164,
2005-03-06, 03:11:00,VALID,920.156,VALID,0,VALID,95.4581,VALID,0,VALID,19.4203,VALID,111,VALID,1.71626,
2005-03-06, 03:12:00,VALID,920.124,VALID,0,VALID,95.2572,VALID,0,VALID,19.4953,VALID,113,VALID,1.57866,
2005-03-06, 03:13:00,VALID,920.121,VALID,0,VALID,95.0486,VALID,-0.0169808,VALID,19.5507,VALID,117,VALID,1.28311,
2005-03-06, 03:14:00,VALID,920.095,VALID,0,VALID,94.8515,VALID,-0.0339617,VALID,19.5924,VALID,110,VALID,1.67683,
2005-03-06, 03:15:00,VALID,920.094,VALID,0,VALID,94.6506,VALID,-0.0169808,VALID,19.615,VALID,107,VALID,1.32552,
2005-03-06, 03:16:00,VALID,920.085,VALID,0,VALID,94.5921,VALID,-0.0339617,VALID,19.615,VALID,90,VALID,1.61119,
2005-03-06, 03:17:00,VALID,920.086,VALID,0,VALID,94.587,VALID,-0.0169808,VALID,19.5984,VALID,100,VALID,1.36147,
2005-03-06, 03:18:00,VALID,920.075,VALID,0,VALID,94.5705,VALID,-0.0169808,VALID,19.6083,VALID,96,VALID,1.38858,
2005-03-06, 03:19:00,VALID,920.05,VALID,0,VALID,94.6837,VALID,-0.0169808,VALID,19.5718,VALID,102,VALID,1.43266,
2005-03-06, 03:20:00,VALID,920.028,VALID,0,VALID,94.7384,VALID,-0.0169808,VALID,19.5703,VALID,119,VALID,1.59201,
2005-03-06, 03:21:00,VALID,920.014,VALID,0,VALID,94.7905,VALID,-0.0169808,VALID,19.5534,VALID,120,VALID,1.66921,
2005-03-06, 03:22:00,VALID,920.003,VALID,0,VALID,94.8337,VALID,0.0169808,VALID,19.5733,VALID,113,VALID,1.48177,
2005-03-06, 03:23:00,VALID,919.99,VALID,0,VALID,94.6659,VALID,-0.0169808,VALID,19.5795,VALID,122,VALID,1.49945,
2005-03-06, 03:24:00,VALID,919.979,VALID,0,VALID,94.5794,VALID,0,VALID,19.576,VALID,131,VALID,1.04368,
2005-03-06, 03:25:00,VALID,919.97,VALID,0,VALID,94.6964,VALID,0,VALID,19.5795,VALID,126,VALID,1.40549,
2005-03-06, 03:26:00,VALID,919.96,VALID,0,VALID,94.6366,VALID,-0.0169808,VALID,19.5957,VALID,128,VALID,1.67931,
2005-03-06, 03:27:00,VALID,919.956,VALID,0,VALID,94.5006,VALID,0,VALID,19.6215,VALID,125,VALID,1.4027,
2005-03-06, 03:28:00,VALID,919.938,VALID,0,VALID,94.3976,VALID,0,VALID,19.6307,VALID,129,VALID,1.22892,
2005-03-06, 03:29:00,VALID,919.936,VALID,0,VALID,94.4103,VALID,-0.0339617,VALID,19.6441,VALID,129,VALID,1.35595,
2005-03-06, 03:30:00,VALID,919.907,VALID,0,VALID,94.3785,VALID,0.0169808,VALID,19.6277,VALID,122,VALID,1.05766,
2005-03-06, 03:31:00,VALID,919.897,VALID,0,VALID,94.5222,VALID,-0.0509425,VALID,19.6178,VALID,103,VALID,1.53289,
2005-03-06, 03:32:00,VALID,919.886,VALID,0,VALID,94.498,VALID,-0.0339617,VALID,19.6602,VALID,113,VALID,1.59792,
2005-03-06, 03:33:00,VALID,919.862,VALID,0,VALID,94.2068,VALID,0,VALID,19.7052,VALID,117,VALID,1.60268,
2005-03-06, 03:34:00,VALID,919.865,VALID,0,VALID,94.0657,VALID,-0.0339617,VALID,19.7442,VALID,119,VALID,1.45603,
2005-03-06, 03:35:00,VALID,919.842,VALID,0,VALID,93.7923,VALID,0,VALID,19.7725,VALID,90,VALID,1.30339,